Skip Page Navigation
NASA JPL Caltech
NASA Logo - Jet Propulsion Laboratory + View the NASA Portal
+ Center for Near-Earth Object Studies
JPL Home Earth Solar System Stars & Galaxies Technology
JPL Solar System Dynamics
BODIES ORBITS EPHEMERIDES TOOLS PHYSICAL DATA DISCOVERY FAQ SITE MAP
IMPORTANT: The SSD Announcement email list is now available. Major changes are coming in the near future, including possible hostname and/or URL changes. To be notified of such changes, subscribe to this email list.

Please visit this page for more details.


JPL Small-Body Database Browser
Search: [ help ]  
379434 (2010 CH35)
Classification: Main-belt Asteroid          SPK-ID: 2379434
Ephemeris | Orbit Diagram | Orbital Elements | Mission Design | Physical Parameters | Discovery Circumstances | Close-Approach Data ]

[ show orbit diagram ]
Orbital Elements at Epoch 2458600.5 (2019-Apr-27.0) TDB
Reference: JPL 15 (heliocentric ecliptic J2000)
 Element Value Uncertainty (1-sigma)   Units 
e .02471661971687499 7.8011e-08  
a 3.165134919331632 9.9801e-08 au
q 3.086903483177911 2.5489e-07 au
i 11.6470551330108 8.615e-06 deg
node 126.8120113346607 4.9696e-05 deg
peri 9.093701401537809 0.00021018 deg
M 253.531313163671 0.00020256 deg
tp 2459208.783679960141
(2020-Dec-25.28367996)
0.0011569 TDB
period 2056.774919392828
5.63
9.7279e-05
2.663e-07
d
yr
n .1750313058593082 8.2785e-09 deg/d
Q 3.243366355485354 1.0227e-07 au
  Orbit Determination Parameters
   # obs. used (total)      136  
   data-arc span      3140 days (8.60 yr)  
   first obs. used      2010-02-10  
   last obs. used      2018-09-16  
   planetary ephem.      DE431  
   SB-pert. ephem.      SB431-N16  
   condition code      0  
   norm. resid. RMS      .56588  
   source      ORB  
   producer      Otto Matic  
   solution date      2018-Oct-04 11:35:02  

Additional Information
 Earth MOID = 2.10211 au 
 Jupiter MOID = 1.79325 au 
 T_jup = 3.171 
[ show covariance matrix ]

Ephemeris | Orbit Diagram | Orbital Elements | Mission Design | Physical Parameters | Discovery Circumstances | Close-Approach Data ]

Physical Parameter Table
Parameter Symbol Value Units Sigma Reference Notes
absolute magnitude H 15.9   n/a MPO455731  
diameter diameter 4.417 km 1.181 urn:nasa:pds:neowise_diameters_albedos::2.0[mainbelt] (http://adsabs.harvard.edu/abs/2011ApJ...741...68M)  
geometric albedo albedo 0.036   0.019 urn:nasa:pds:neowise_diameters_albedos::2.0[mainbelt] (http://adsabs.harvard.edu/abs/2011ApJ...741...68M)  

379434 (2010 CH35)          Discovered 2010-Feb-10 by Spacewatch at Kitt Peak
Reference: Last Updated: 2013-11-20

[ show close-approach data ]
Ephemeris | Orbit Diagram | Orbital Elements | Mission Design | Physical Parameters | Discovery Circumstances | Close-Approach Data ]
ABOUT SSD CREDITS/AWARDS PRIVACY/COPYRIGHT GLOSSARY LINKS
FirstGov 2019-Dec-13 21:42 UT
(server date/time)  
NASA Home Page
Site Manager:   Ryan S. Park
Webmaster  Alan B. Chamberlin